FW6247 Weather Reports


Display with metric or nautical units.
time (UTC)temp
F
wind
direction
speed
MPH
gust
MPH
rain 1hr
in
rain 24hr
in
rain mn
in
humidity
%
barometer
mb
20260502151537 54 176 2.0 4.0 0.00 0.00 0.00 85 1017.0
20260502123036 53 159 3.0 4.0 0.00 0.00 0.00 82 1015.6
20260502121607 53 157 2.0 5.0 0.00 0.00 0.00 82 1015.7
20260502114531 53 171 2.0 6.0 0.00 0.00 0.00 81 1015.7
20260502113037 53 168 1.0 6.0 0.00 0.00 0.00 80 1015.8
20260502111535 54 246 1.0 5.0 0.00 0.00 0.00 79 1015.8
20260502110037 54 318 1.0 5.0 0.00 0.00 0.00 78 1015.5
20260502104530 54 104 1.0 3.0 0.00 0.00 0.00 78 1015.8
20260502091530 55 165 0.0 4.0 0.00 0.00 0.00 77 1015.8
20260502071530 53 157 0.0 0.0 0.00 0.00 0.00 78 1016.3
20260502070030 52 158 0.0 3.0 0.00 0.00 0.00 79 1016.3
20260502064531 52 157 0.0 3.0 0.00 0.00 0.00 78 1016.3
20260502063028 52 157 0.0 1.0 0.00 0.00 0.00 75 1016.3
20260502061535 53 157 0.0 0.0 0.00 0.00 0.00 74 1016.0
20260502060032 54 157 0.0 0.0 0.00 0.00 0.00 72 1016.1
20260502053037 56 171 1.0 3.0 0.00 0.00 0.00 65 1016.0
20260502051531 60 78 0.0 2.0 0.00 0.00 0.00 61 1015.8
20260502050104 61 85 0.0 3.0 0.00 0.00 0.00 60 1015.9
20260502043053 63 65 1.0 4.0 0.00 0.00 0.00 55 1015.7
20260502041603 63 13 1.0 5.0 0.00 0.00 0.00 52 1015.5
20260502040104 63 329 0.0 5.0 0.00 0.00 0.00 51 1015.4
20260502034526 64 309 1.0 6.0 0.00 0.00 0.00 50 1015.3
20260502033031 64 273 1.0 6.0 0.00 0.00 0.00 50 1015.2
20260502031533 65 269 0.0 4.0 0.00 0.00 0.00 49 1015.0
20260502030029 67 350 0.0 0.0 0.00 0.00 0.00 46 1014.7
20260502024534 68 360 0.0 0.0 0.00 0.00 0.00 44 1014.5
20260502023031 69 12 0.0 0.0 0.00 0.00 0.00 43 1014.4
20260502021530 70 29 0.0 1.0 0.00 0.00 0.00 41 1014.3
20260502014530 72 17 0.0 4.0 0.00 0.00 0.00 39 1014.3
20260502013034 72 18 1.0 4.0 0.00 0.00 0.00 39 1014.3
20260502011529 73 24 0.0 3.0 0.00 0.00 0.00 37 1014.4
20260502010031 74 30 1.0 5.0 0.00 0.00 0.00 34 1014.3
20260502004532 76 24 3.0 7.0 0.00 0.00 0.00 33 1014.4
20260502003029 78 25 3.0 8.0 0.00 0.00 0.00 32 1014.4
20260502000032 79 27 3.0 8.0 0.00 0.00 0.00 31 1014.5
20260501234535 79 27 3.0 9.0 0.00 0.00 0.00 32 1014.7
20260501233031 80 23 3.0 9.0 0.00 0.00 0.00 32 1014.9
20260501231529 80 28 3.0 7.0 0.00 0.00 0.00 32 1014.9
20260501230029 79 19 3.0 8.0 0.00 0.00 0.00 32 1015.2
20260501224603 79 34 3.0 8.0 0.00 0.00 0.00 32 1015.5
20260501223029 78 32 4.0 10.0 0.00 0.00 0.00 32 1015.6
20260501221529 78 28 4.0 12.0 0.00 0.00 0.00 33 1015.8
20260501220031 78 17 3.0 11.0 0.00 0.00 0.00 34 1016.1
20260501214531 78 15 3.0 10.0 0.00 0.00 0.00 35 1016.3
20260501213031 77 6 2.0 8.0 0.00 0.00 0.00 36 1016.5
20260501211535 76 11 2.0 8.0 0.00 0.00 0.00 36 1016.7
20260501204532 76 18 1.0 5.0 0.00 0.00 0.00 36 1017.0
20260501203028 76 8 1.0 7.0 0.00 0.00 0.00 36 1017.2
20260501201531 75 21 3.0 8.0 0.00 0.00 0.00 37 1017.4
20260501200031 75 38 2.0 10.0 0.00 0.00 0.00 38 1017.5
20260501194529 75 33 3.0 9.0 0.00 0.00 0.00 39 1017.7
20260501193032 73 21 2.0 10.0 0.00 0.00 0.00 40 1018.1
20260501191532 71 17 1.0 5.0 0.00 0.00 0.00 41 1018.4
20260501190038 70 34 1.0 6.0 0.00 0.00 0.00 43 1018.5
20260501184528 69 25 1.0 6.0 0.00 0.00 0.00 43 1018.7
20260501183033 70 26 2.0 6.0 0.00 0.00 0.00 43 1018.8
20260501181534 69 15 2.0 5.0 0.00 0.00 0.00 44 1018.8
20260501174528 67 23 1.0 5.0 0.00 0.00 0.00 43 1019.0
20260501173111 65 38 0.0 4.0 0.00 0.00 0.00 45 1019.2
20260501170032 62 21 0.0 4.0 0.00 0.00 0.00 47 1019.3
20260501164536 62 343 0.0 4.0 0.00 0.00 0.00 48 1019.4
20260501163037 62 343 0.0 4.0 0.00 0.00 0.00 49 1019.5
20260501161532 62 9 0.0 4.0 0.00 0.00 0.00 50 1019.5
20260501160031 60 351 0.0 3.0 0.00 0.00 0.00 52 1019.5
20260501154536 59 304 0.0 1.0 0.00 0.00 0.00 54 1019.5
20260501153036 56 157 0.0 0.0 0.00 0.00 0.00 59 1019.5